Content
SEND FEEDBACK

Daily
Averages
Monthly
Summary
Mexico

PLAYA DEL CARMEN, QUINTANA ROO


Home > North America > Mexico > Quintana Roo
Elevation: 30 feet     Latitude: 20 38N     Longitude: 087 04W

WEATHER
 
SELECT A DAY
Number of Records: 196,216;   Date Range: 2/21/06 - 7/22/14
 
SHARE

PRINT THIS DATA

[ ← Previous Day ]
WEATHER ALMANAC - MARCH 26, 2013
[ Next Day → ]
[ °C ]   °F
Weather ElementAverageHighLow
Temperature52.9 °F59 °F (1:55 pm)46.4 °F (10:35 pm)
Dewpoint30.1 °F44.6 °F (1:15 am)21.2 °F (5:55 am)
Humidity43.9 %72 % (1:15 am)27 % (3:15 pm)
Barometer30.18 in30.28 in (11:15 pm)30.08 in (2:35 am)
Wind Speed9.1 mph19.6 mph (5:35 pm)
Wind Gust26.5 mph (1:35 pm)
Weather ElementAverage
Visibility10 mi
Wind DirectionWNW (290.8 °)

Weather ElementTotal
Precipitation---
Heating Degree Days12.3 (Base 65)
Growing Degree Days2.7 (Base 50)
Averaged from 71 records on March 26, 2013
WEATHER CONDITIONS BREAKOUT
WIND DIRECTION BREAKOUT
WEATHER BY HOUR - MARCH 26, 2013
[ °C ]   °F
Local TimeTemperatureDewpointHumidityBarometerVisibilityWind DirectionWind SpeedGust SpeedPrecipitationEventsConditions
12:35 AM53.6 °F42.8 °F67 %30.09 in10.0 miWNW (290°)3.5 mphClear
12:55 AM53.6 °F42.8 °F67 %30.09 in10.0 miWNW (300°)3.5 mphClear
1:15 AM53.6 °F44.6 °F72 %30.09 in10.0 miCalmClear
1:35 AM53.6 °F44.6 °F72 %30.09 in10.0 miCalmClear
1:55 AM53.6 °F44.6 °F72 %30.09 in10.0 miCalmClear
2:15 AM53.6 °F44.6 °F72 %30.09 in10.0 miCalmClear
2:35 AM53.6 °F44.6 °F72 %30.08 in10.0 miWNW (300°)3.5 mphClear
2:55 AM53.6 °F44.6 °F72 %30.09 in10.0 miNNW (340°)4.6 mphClear
3:15 AM53.6 °F42.8 °F67 %30.09 in10.0 miNorth (350°)5.8 mphClear
3:35 AM53.6 °F37.4 °F54 %30.09 in10.0 miNorth (350°)6.9 mphClear
3:55 AM53.6 °F35.6 °F51 %30.09 in10.0 miNorth (350°)4.6 mphClear
4:15 AM53.6 °F32.0 °F44 %30.09 in10.0 miNorth (350°)4.6 mphClear
4:35 AM53.6 °F28.4 °F38 %30.10 in10.0 miNNW (340°)5.8 mphClear
4:55 AM53.6 °F28.4 °F38 %30.10 in10.0 miNorth (350°)6.9 mphClear
5:15 AM51.8 °F24.8 °F35 %30.11 in10.0 miNorth (350°)10.4 mph17.3 mphClear
5:35 AM51.8 °F23.0 °F33 %30.11 in10.0 miNorth (10°)8.1 mph16.1 mphClear
5:55 AM50.0 °F21.2 °F32 %30.12 in10.0 miNorth (360°)8.1 mphClear
6:15 AM50.0 °F21.2 °F32 %30.13 in10.0 miNorth (360°)5.8 mphScattered Clouds
6:35 AM50.0 °F21.2 °F32 %30.14 in10.0 miNorth (10°)5.8 mphMostly Cloudy
6:55 AM50.0 °F21.2 °F32 %30.15 in10.0 miNorth (360°)5.8 mphMostly Cloudy
7:15 AM48.2 °F21.2 °F34 %30.16 in10.0 miNorth (360°)6.9 mphMostly Cloudy
7:35 AM48.2 °F23.0 °F37 %30.17 in10.0 miNorth (350°)4.6 mphScattered Clouds
7:55 AM48.2 °F24.8 °F40 %30.17 in10.0 miNorth (350°)5.8 mphScattered Clouds
8:15 AM48.2 °F24.8 °F40 %30.18 in10.0 miNorth (350°)4.6 mphMostly Cloudy
8:35 AM48.2 °F26.6 °F43 %30.19 in10.0 miNNW (340°)6.9 mphOvercast
8:55 AM48.2 °F24.8 °F40 %30.20 in10.0 miNNW (340°)5.8 mphOvercast
9:15 AM48.2 °F26.6 °F43 %30.21 in10.0 miNorth (350°)8.1 mphMostly Cloudy
9:35 AM50.0 °F24.8 °F37 %30.21 in10.0 miNNW (330°)11.5 mph19.6 mphClear
9:55 AM51.8 °F24.8 °F35 %30.21 in10.0 miNorth (350°)11.5 mph20.7 mphClear
10:15 AM51.8 °F28.4 °F41 %30.21 in10.0 miNorth (350°)11.5 mph17.3 mphClear
10:35 AM53.6 °F28.4 °F38 %30.21 in10.0 miNorth (350°)13.8 mph18.4 mphClear
10:55 AM53.6 °F30.2 °F41 %30.22 in10.0 miNNW (330°)13.8 mph21.9 mphClear
11:15 AM53.6 °F28.4 °F38 %30.21 in10.0 miNW (320°)16.1 mph21.9 mphClear
11:35 AM55.4 °F30.2 °F38 %30.22 in10.0 miNNW (330°)5.8 mph20.7 mphClear
11:55 AM57.2 °F30.2 °F36 %30.22 in10.0 miWNW (300°)16.1 mph20.7 mphClear
12:15 PM57.2 °F30.2 °F36 %30.22 in10.0 miNNW (330°)16.1 mph21.9 mphClear
12:35 PM57.2 °F26.6 °F31 %30.22 in10.0 miWNW (290°)15.0 mph24.2 mphClear
12:55 PM57.2 °F26.6 °F31 %30.21 in10.0 miNNW (340°)12.7 mph25.3 mphClear
1:15 PM57.2 °F28.4 °F33 %30.22 in10.0 miNW (320°)15.0 mph23.0 mphClear
1:35 PM57.2 °F28.4 °F33 %30.21 in10.0 miWNW (300°)13.8 mph26.5 mphClear
1:55 PM59.0 °F28.4 °F31 %30.21 in10.0 miNW (310°)12.7 mph23.0 mphClear
2:15 PM59.0 °F28.4 °F31 %30.21 in10.0 miNNW (330°)16.1 mph24.2 mphClear
2:35 PM59.0 °F26.6 °F29 %30.21 in10.0 miNW (310°)18.4 mph26.5 mphClear
2:55 PM59.0 °F26.6 °F29 %30.20 in10.0 miWNW (290°)17.3 mph25.3 mphClear
3:15 PM59.0 °F24.8 °F27 %30.20 in10.0 miWNW (300°)15.0 mph26.5 mphClear
3:35 PM59.0 °F26.6 °F29 %30.20 in10.0 miWNW (300°)18.4 mph25.3 mphClear
3:55 PM57.2 °F28.4 °F33 %30.19 in10.0 miWest (280°)18.4 mph25.3 mphClear
4:15 PM59.0 °F26.6 °F29 %30.19 in10.0 miWest (280°)18.4 mph24.2 mphClear
4:35 PM57.2 °F24.8 °F29 %30.19 in10.0 miNW (310°)15.0 mph26.5 mphClear
4:55 PM57.2 °F23.0 °F27 %30.18 in10.0 miWNW (300°)15.0 mph26.5 mphClear
5:15 PM57.2 °F26.6 °F31 %30.18 in10.0 miWNW (290°)16.1 mph23.0 mphClear
5:35 PM57.2 °F24.8 °F29 %30.19 in10.0 miNW (320°)19.6 mph24.2 mphClear
5:55 PM57.2 °F24.8 °F29 %30.19 in10.0 miWNW (290°)12.7 mph21.9 mphClear
6:15 PM55.4 °F24.8 °F31 %30.20 in10.0 miWNW (300°)13.8 mph21.9 mphClear
6:35 PM55.4 °F23.0 °F29 %30.20 in10.0 miWNW (300°)8.1 mph21.9 mphClear
6:55 PM55.4 °F24.8 °F31 %30.20 in10.0 miWNW (300°)11.5 mph19.6 mphClear
7:15 PM53.6 °F28.4 °F38 %30.21 in10.0 miWNW (300°)11.5 mphClear
7:35 PM51.8 °F30.2 °F44 %30.21 in10.0 miWNW (290°)9.2 mph20.7 mphClear
7:55 PM51.8 °F30.2 °F44 %30.22 in10.0 miWNW (300°)5.8 mphClear
8:15 PM50.0 °F32.0 °F50 %30.23 in10.0 miNW (320°)5.8 mphClear
8:35 PM50.0 °F32.0 °F50 %30.23 in10.0 miNW (320°)9.2 mphClear
8:55 PM50.0 °F32.0 °F50 %30.24 in10.0 miNW (320°)5.8 mphClear
9:15 PM48.2 °F33.8 °F58 %30.25 in10.0 miNW (310°)6.9 mphClear
9:35 PM48.2 °F33.8 °F58 %30.26 in10.0 miNW (320°)5.8 mphClear
9:55 PM48.2 °F33.8 °F58 %30.27 in10.0 miNW (320°)4.6 mphClear
10:15 PM48.2 °F35.6 °F62 %30.27 in10.0 miNW (310°)4.6 mphClear
10:35 PM46.4 °F35.6 °F66 %30.27 in10.0 miNW (320°)4.6 mphClear
10:55 PM46.4 °F35.6 °F66 %30.27 in10.0 miNW (320°)4.6 mphClear
11:15 PM46.4 °F35.6 °F66 %30.28 in10.0 miNW (320°)4.6 mphClear
11:35 PM46.4 °F35.6 °F66 %30.28 in10.0 miNW (320°)4.6 mphClear
11:55 PM46.4 °F35.6 °F66 %30.28 in10.0 miCalmClear
Hourly data recorded from KPCM, located miles away from Playa del Carmen, Quintana Roo







STORIES FROM OUR PARTNERS